Location: Gleizolles
(44.4833°N, 6.7667°E)
Time: 18:46:53
(UTC+00:00)

Resurs 01 Rocket - Pass Details

Date: 09 April 2020
Orbit: 635 x 644 km, 98.0° (Epoch: 01 June)

Event Time Altitude Azimuth Distance (km) Brightness Sun altitude
Exits shadow 19:17:43 18° 119° (ESE) 1,574 3.0 -12.2°
Maximum altitude 19:20:17 32° 68° (ENE) 1,107 2.5 -12.6°
Drops below altitude 10° 19:24:12 10° 6° (N) 2,036 4.5 -13.2°
Sets 19:26:35 0° 357° (N) 2,951 5.5 -13.6°
